Time,TemperatureF,DewpointF,PressureIn,WindDirection,WindDirectionDegrees,WindSpeedMPH,WindSpeedGustMPH,Humidity,HourlyPrecipIn,Conditions,Clouds,dailyrainin,SoftwareType,DateUTC
2013-01-06 00:00:00,37.0,32.6,30.22,West,276,0.0,0.0,84,0.00,,,0.00,LWC V2.00 B2112,2013-01-06 05:00:00,
2013-01-06 00:05:00,37.0,32.6,30.22,West,276,0.0,0.0,84,0.00,,,0.00,LWC V2.00 B2112,2013-01-06 05:05:00,
2013-01-06 00:10:00,37.2,32.8,30.22,West,276,0.0,0.0,84,0.00,,,0.00,LWC V2.00 B2112,2013-01-06 05:10:00,
2013-01-06 00:15:00,37.3,32.9,30.22,West,276,0.0,0.0,84,0.00,,,0.00,LWC V2.00 B2112,2013-01-06 05:15:00,
2013-01-06 00:20:00,37.5,33.1,30.22,West,276,0.0,0.0,84,0.00,,,0.00,LWC V2.00 B2112,2013-01-06 05:20:00,
2013-01-06 00:25:00,37.6,33.5,30.20,West,276,0.0,0.0,85,0.00,,,0.00,LWC V2.00 B2112,2013-01-06 05:25:00,
2013-01-06 00:30:00,37.8,33.7,30.20,West,276,0.0,0.0,85,0.00,,,0.00,LWC V2.00 B2112,2013-01-06 05:30:00,
2013-01-06 00:35:00,38.0,34.2,30.20,West,276,0.0,0.0,86,0.00,,,0.00,LWC V2.00 B2112,2013-01-06 05:35:00,
2013-01-06 00:40:00,38.0,34.2,30.18,West,276,0.0,0.0,86,0.00,,,0.00,LWC V2.00 B2112,2013-01-06 05:40:00,
2013-01-06 00:45:00,38.0,34.2,30.18,West,276,0.0,0.0,86,0.00,,,0.00,LWC V2.00 B2112,2013-01-06 05:45:00,
2013-01-06 00:50:00,38.2,34.4,30.18,West,276,0.0,0.0,86,0.00,,,0.00,LWC V2.00 B2112,2013-01-06 05:50:00,
2013-01-06 00:55:00,38.2,34.4,30.18,West,276,0.0,0.0,86,0.00,,,0.00,LWC V2.00 B2112,2013-01-06 05:55:00,
2013-01-06 01:00:00,38.3,34.5,30.18,West,276,0.0,0.0,86,0.00,,,0.00,LWC V2.00 B2112,2013-01-06 06:00:00,
2013-01-06 01:05:00,38.3,34.5,30.18,West,276,0.0,0.0,86,0.00,,,0.00,LWC V2.00 B2112,2013-01-06 06:05:00,
2013-01-06 01:10:00,38.3,34.2,30.17,West,276,0.0,0.0,85,0.00,,,0.00,LWC V2.00 B2112,2013-01-06 06:10:00,
2013-01-06 01:15:00,38.3,34.2,30.17,West,276,0.0,0.0,85,0.00,,,0.00,LWC V2.00 B2112,2013-01-06 06:15:00,
2013-01-06 01:20:00,38.5,34.7,30.17,West,276,0.0,0.0,86,0.00,,,0.00,LWC V2.00 B2112,2013-01-06 06:20:00,
2013-01-06 01:25:00,38.5,34.7,30.17,West,276,0.0,0.0,86,0.00,,,0.00,LWC V2.00 B2112,2013-01-06 06:25:00,
2013-01-06 01:30:00,38.6,34.8,30.17,West,276,0.0,0.0,86,0.00,,,0.00,LWC V2.00 B2112,2013-01-06 06:30:00,
2013-01-06 01:35:00,38.6,34.8,30.17,West,276,0.0,0.0,86,0.00,,,0.00,LWC V2.00 B2112,2013-01-06 06:35:00,
2013-01-06 01:40:00,38.8,34.7,30.16,West,276,0.0,0.0,85,0.00,,,0.00,LWC V2.00 B2112,2013-01-06 06:40:00,
2013-01-06 01:45:00,38.8,34.7,30.16,West,276,0.0,0.0,85,0.00,,,0.00,LWC V2.00 B2112,2013-01-06 06:45:00,
2013-01-06 01:50:00,38.9,35.1,30.16,West,276,0.0,0.0,86,0.00,,,0.00,LWC V2.00 B2112,2013-01-06 06:50:00,
2013-01-06 01:55:00,39.1,35.3,30.17,West,276,0.0,0.0,86,0.00,,,0.00,LWC V2.00 B2112,2013-01-06 06:55:00,
2013-01-06 02:00:00,39.1,35.6,30.17,West,276,0.0,0.0,87,0.00,,,0.00,LWC V2.00 B2112,2013-01-06 07:00:00,
2013-01-06 02:05:00,39.1,35.6,30.17,West,276,0.0,0.0,87,0.00,,,0.00,LWC V2.00 B2112,2013-01-06 07:05:00,
2013-01-06 02:10:00,39.1,35.6,30.17,West,276,0.0,0.0,87,0.00,,,0.00,LWC V2.00 B2112,2013-01-06 07:10:00,
2013-01-06 02:15:00,39.1,35.6,30.17,West,276,0.0,0.0,87,0.00,,,0.00,LWC V2.00 B2112,2013-01-06 07:15:00,
2013-01-06 02:20:00,39.2,35.7,30.17,West,276,0.0,0.0,87,0.00,,,0.00,LWC V2.00 B2112,2013-01-06 07:20:00,
2013-01-06 02:25:00,39.2,36.0,30.18,West,276,0.0,0.0,88,0.00,,,0.00,LWC V2.00 B2112,2013-01-06 07:25:00,
2013-01-06 02:30:00,39.2,36.0,30.18,West,276,0.0,0.0,88,0.00,,,0.00,LWC V2.00 B2112,2013-01-06 07:30:00,
2013-01-06 02:35:00,39.2,36.0,30.18,West,276,0.0,0.0,88,0.00,,,0.00,LWC V2.00 B2112,2013-01-06 07:35:00,
2013-01-06 02:40:00,39.2,36.0,30.19,West,276,0.0,0.0,88,0.00,,,0.00,LWC V2.00 B2112,2013-01-06 07:40:00,
2013-01-06 02:45:00,39.1,35.9,30.19,West,276,0.0,0.0,88,0.00,,,0.00,LWC V2.00 B2112,2013-01-06 07:45:00,
2013-01-06 02:50:00,39.1,35.9,30.19,West,276,0.0,0.0,88,0.00,,,0.00,LWC V2.00 B2112,2013-01-06 07:50:00,
2013-01-06 02:55:00,39.1,36.1,30.18,West,276,0.0,0.0,89,0.00,,,0.00,LWC V2.00 B2112,2013-01-06 07:55:00,
2013-01-06 03:00:00,39.2,36.2,30.18,West,276,0.0,0.0,89,0.00,,,0.00,LWC V2.00 B2112,2013-01-06 08:00:00,
2013-01-06 03:05:00,39.2,36.5,30.18,West,276,0.0,0.0,90,0.00,,,0.00,LWC V2.00 B2112,2013-01-06 08:05:00,
2013-01-06 03:10:00,39.3,36.6,30.18,West,276,0.0,0.0,90,0.00,,,0.00,LWC V2.00 B2112,2013-01-06 08:10:00,
2013-01-06 03:15:00,39.3,36.6,30.18,West,276,0.0,0.0,90,0.00,,,0.00,LWC V2.00 B2112,2013-01-06 08:15:00,
2013-01-06 03:20:00,39.3,36.9,30.18,West,276,0.0,0.0,91,0.00,,,0.00,LWC V2.00 B2112,2013-01-06 08:20:00,
2013-01-06 03:25:00,39.3,36.9,30.18,West,276,0.0,0.0,91,0.00,,,0.00,LWC V2.00 B2112,2013-01-06 08:25:00,
2013-01-06 03:30:00,39.3,36.9,30.18,West,276,0.0,0.0,91,0.00,,,0.00,LWC V2.00 B2112,2013-01-06 08:30:00,
2013-01-06 03:35:00,39.3,36.9,30.18,West,276,0.0,0.0,91,0.00,,,0.00,LWC V2.00 B2112,2013-01-06 08:35:00,
2013-01-06 03:40:00,39.3,36.9,30.17,West,276,0.0,0.0,91,0.00,,,0.00,LWC V2.00 B2112,2013-01-06 08:40:00,
2013-01-06 03:45:00,39.3,37.2,30.17,West,276,0.0,0.0,92,0.00,,,0.00,LWC V2.00 B2112,2013-01-06 08:45:00,
2013-01-06 03:50:00,39.5,37.4,30.17,West,276,0.0,0.0,92,0.00,,,0.00,LWC V2.00 B2112,2013-01-06 08:50:00,
2013-01-06 03:55:00,39.5,37.4,30.17,West,276,0.0,0.0,92,0.00,,,0.00,LWC V2.00 B2112,2013-01-06 08:55:00,
2013-01-06 04:00:00,39.5,37.4,30.17,West,276,0.0,0.0,92,0.00,,,0.00,LWC V2.00 B2112,2013-01-06 09:00:00,
2013-01-06 04:05:00,39.5,37.4,30.17,West,276,0.0,0.0,92,0.00,,,0.00,LWC V2.00 B2112,2013-01-06 09:05:00,
2013-01-06 04:10:00,39.5,37.4,30.16,West,276,0.0,0.0,92,0.00,,,0.00,LWC V2.00 B2112,2013-01-06 09:10:00,
2013-01-06 04:15:00,39.5,37.4,30.16,West,276,0.0,0.0,92,0.00,,,0.00,LWC V2.00 B2112,2013-01-06 09:15:00,
2013-01-06 04:20:00,39.5,37.4,30.16,West,276,0.0,0.0,92,0.00,,,0.00,LWC V2.00 B2112,2013-01-06 09:20:00,
2013-01-06 04:25:00,39.5,37.4,30.15,West,276,0.0,0.0,92,0.00,,,0.00,LWC V2.00 B2112,2013-01-06 09:25:00,
2013-01-06 04:30:00,39.5,37.6,30.15,West,276,0.0,0.0,93,0.00,,,0.00,LWC V2.00 B2112,2013-01-06 09:30:00,
2013-01-06 04:35:00,39.5,37.6,30.15,West,276,0.0,0.0,93,0.00,,,0.00,LWC V2.00 B2112,2013-01-06 09:35:00,
2013-01-06 04:40:00,39.5,37.6,30.14,West,276,0.0,0.0,93,0.00,,,0.00,LWC V2.00 B2112,2013-01-06 09:40:00,
2013-01-06 04:45:00,39.5,37.6,30.14,West,276,0.0,0.0,93,0.00,,,0.00,LWC V2.00 B2112,2013-01-06 09:45:00,
2013-01-06 04:50:00,39.5,37.6,30.14,West,276,0.0,0.0,93,0.00,,,0.01,LWC V2.00 B2112,2013-01-06 09:50:00,
2013-01-06 04:55:00,39.5,37.6,30.14,West,276,0.0,0.0,93,0.00,,,0.01,LWC V2.00 B2112,2013-01-06 09:55:00,
2013-01-06 05:00:00,39.6,38.0,30.14,West,276,0.0,0.0,94,0.00,,,0.01,LWC V2.00 B2112,2013-01-06 10:00:00,
2013-01-06 05:05:00,39.6,38.0,30.14,West,276,0.0,0.0,94,0.00,,,0.01,LWC V2.00 B2112,2013-01-06 10:05:00,
2013-01-06 05:10:00,39.5,37.9,30.14,West,276,0.0,0.0,94,0.00,,,0.00,LWC V2.00 B2112,2013-01-06 10:10:00,
2013-01-06 05:15:00,39.5,37.9,30.14,West,276,0.0,0.0,94,0.00,,,0.00,LWC V2.00 B2112,2013-01-06 10:15:00,
2013-01-06 05:20:00,39.5,37.9,30.14,West,276,0.0,0.0,94,0.00,,,0.00,LWC V2.00 B2112,2013-01-06 10:20:00,
2013-01-06 05:25:00,39.5,37.9,30.13,West,276,0.0,0.0,94,0.00,,,0.00,LWC V2.00 B2112,2013-01-06 10:25:00,
2013-01-06 05:30:00,39.5,37.9,30.13,West,276,0.0,0.0,94,0.00,,,0.00,LWC V2.00 B2112,2013-01-06 10:30:00,
2013-01-06 05:35:00,39.5,37.9,30.13,West,276,0.0,0.0,94,0.00,,,0.00,LWC V2.00 B2112,2013-01-06 10:35:00,
2013-01-06 05:40:00,39.6,38.0,30.13,West,276,0.0,0.0,94,0.00,,,0.00,LWC V2.00 B2112,2013-01-06 10:40:00,
2013-01-06 05:45:00,39.6,38.0,30.13,West,276,0.0,0.0,94,0.00,,,0.00,LWC V2.00 B2112,2013-01-06 10:45:00,
2013-01-06 05:50:00,39.6,38.0,30.13,West,276,0.0,0.0,94,0.00,,,0.00,LWC V2.00 B2112,2013-01-06 10:50:00,
2013-01-06 05:55:00,39.8,37.9,30.14,West,276,0.0,0.0,93,0.00,,,0.00,LWC V2.00 B2112,2013-01-06 10:55:00,
2013-01-06 06:00:00,39.8,38.2,30.14,West,276,0.0,0.0,94,0.00,,,0.00,LWC V2.00 B2112,2013-01-06 11:00:00,
2013-01-06 06:05:00,39.9,38.3,30.14,West,276,0.0,0.0,94,0.00,,,0.00,LWC V2.00 B2112,2013-01-06 11:05:00,
2013-01-06 06:10:00,39.9,38.3,30.13,West,276,0.0,0.0,94,0.00,,,0.00,LWC V2.00 B2112,2013-01-06 11:10:00,
2013-01-06 06:15:00,39.9,38.3,30.13,West,276,0.0,0.0,94,0.00,,,0.00,LWC V2.00 B2112,2013-01-06 11:15:00,
2013-01-06 06:20:00,39.9,38.3,30.13,West,276,0.0,0.0,94,0.00,,,0.00,LWC V2.00 B2112,2013-01-06 11:20:00,
2013-01-06 06:25:00,39.9,38.3,30.12,West,276,0.0,0.0,94,0.00,,,0.00,LWC V2.00 B2112,2013-01-06 11:25:00,
2013-01-06 06:30:00,39.9,38.3,30.12,West,276,0.0,0.0,94,0.00,,,0.00,LWC V2.00 B2112,2013-01-06 11:30:00,
2013-01-06 06:35:00,39.9,38.3,30.12,West,276,0.0,0.0,94,0.00,,,0.00,LWC V2.00 B2112,2013-01-06 11:35:00,
2013-01-06 06:40:00,39.9,38.3,30.14,West,276,0.0,0.0,94,0.00,,,0.00,LWC V2.00 B2112,2013-01-06 11:40:00,
2013-01-06 06:45:00,39.9,38.3,30.14,West,276,0.0,0.0,94,0.00,,,0.00,LWC V2.00 B2112,2013-01-06 11:45:00,
2013-01-06 06:50:00,40.1,38.5,30.14,West,276,0.0,0.0,94,0.00,,,0.00,LWC V2.00 B2112,2013-01-06 11:50:00,
2013-01-06 06:55:00,40.1,38.5,30.14,West,276,0.0,0.0,94,0.00,,,0.00,LWC V2.00 B2112,2013-01-06 11:55:00,
2013-01-06 07:00:00,40.1,38.5,30.14,West,276,0.0,0.0,94,0.00,,,0.00,LWC V2.00 B2112,2013-01-06 12:00:00,
2013-01-06 07:05:00,40.1,38.5,30.14,West,276,0.0,0.0,94,0.00,,,0.00,LWC V2.00 B2112,2013-01-06 12:05:00,
2013-01-06 07:10:00,40.1,38.5,30.14,West,276,0.0,0.0,94,0.00,,,0.00,LWC V2.00 B2112,2013-01-06 12:10:00,
2013-01-06 07:15:00,40.1,38.5,30.14,West,276,0.0,0.0,94,0.00,,,0.00,LWC V2.00 B2112,2013-01-06 12:15:00,
2013-01-06 07:20:00,40.1,38.5,30.14,West,276,0.0,0.0,94,0.00,,,0.00,LWC V2.00 B2112,2013-01-06 12:20:00,
2013-01-06 07:25:00,39.9,38.3,30.14,West,276,0.0,0.0,94,0.00,,,0.00,LWC V2.00 B2112,2013-01-06 12:25:00,
2013-01-06 07:30:00,39.9,38.3,30.14,West,276,0.0,0.0,94,0.00,,,0.00,LWC V2.00 B2112,2013-01-06 12:30:00,
2013-01-06 07:35:00,39.8,38.2,30.14,West,276,0.0,0.0,94,0.00,,,0.00,LWC V2.00 B2112,2013-01-06 12:35:00,
2013-01-06 07:40:00,39.8,38.2,30.14,West,276,0.0,0.0,94,0.00,,,0.00,LWC V2.00 B2112,2013-01-06 12:40:00,
2013-01-06 07:43:00,39.8,38.2,30.14,West,276,0.0,0.0,94,0.00,,,0.00,LWC V2.00 B2112,2013-01-06 12:43:00,
2013-01-06 07:48:00,39.8,38.2,30.14,West,276,0.0,0.0,94,0.00,,,0.00,LWC V2.00 B2112,2013-01-06 12:48:00,
2013-01-06 07:53:00,39.6,38.0,30.15,West,276,0.0,0.0,94,0.00,,,0.00,LWC V2.00 B2112,2013-01-06 12:53:00,
2013-01-06 07:58:00,39.5,37.9,30.15,West,276,0.0,0.0,94,0.00,,,0.00,LWC V2.00 B2112,2013-01-06 12:58:00,
2013-01-06 08:03:00,39.5,37.9,30.15,West,276,0.0,0.0,94,0.00,,,0.00,LWC V2.00 B2112,2013-01-06 13:03:00,
2013-01-06 08:08:00,39.5,37.9,30.14,West,276,0.0,0.0,94,0.00,,,0.00,LWC V2.00 B2112,2013-01-06 13:08:00,
2013-01-06 08:13:00,39.5,37.9,30.14,West,276,0.0,0.0,94,0.00,,,0.00,LWC V2.00 B2112,2013-01-06 13:13:00,
2013-01-06 08:18:00,39.6,38.0,30.14,West,276,0.0,0.0,94,0.00,,,0.00,LWC V2.00 B2112,2013-01-06 13:18:00,
2013-01-06 08:23:00,39.6,38.0,30.15,West,276,0.0,0.0,94,0.00,,,0.00,LWC V2.00 B2112,2013-01-06 13:23:00,
2013-01-06 08:28:00,39.8,38.2,30.15,West,276,0.0,0.0,94,0.00,,,0.00,LWC V2.00 B2112,2013-01-06 13:28:00,
2013-01-06 08:33:00,39.9,38.6,30.15,West,276,0.0,0.0,95,0.00,,,0.00,LWC V2.00 B2112,2013-01-06 13:33:00,
2013-01-06 08:38:00,40.2,38.9,30.14,West,276,0.0,0.0,95,0.00,,,0.00,LWC V2.00 B2112,2013-01-06 13:38:00,
2013-01-06 08:43:00,40.3,39.0,30.14,West,276,0.0,0.0,95,0.00,,,0.00,LWC V2.00 B2112,2013-01-06 13:43:00,
2013-01-06 08:48:00,40.6,39.0,30.14,West,276,0.0,0.0,94,0.00,,,0.00,LWC V2.00 B2112,2013-01-06 13:48:00,
2013-01-06 08:53:00,40.8,39.2,30.14,West,276,0.0,0.0,94,0.00,,,0.00,LWC V2.00 B2112,2013-01-06 13:53:00,
2013-01-06 08:58:00,40.9,39.3,30.14,West,276,0.0,0.0,94,0.00,,,0.00,LWC V2.00 B2112,2013-01-06 13:58:00,
2013-01-06 09:03:00,41.1,39.8,30.14,West,276,0.0,0.0,95,0.00,,,0.00,LWC V2.00 B2112,2013-01-06 14:03:00,
2013-01-06 09:08:00,41.2,39.9,30.15,West,276,0.0,0.0,95,0.00,,,0.00,LWC V2.00 B2112,2013-01-06 14:08:00,
2013-01-06 09:13:00,41.3,39.7,30.15,West,276,0.0,0.0,94,0.00,,,0.00,LWC V2.00 B2112,2013-01-06 14:13:00,
2013-01-06 09:18:00,41.6,40.0,30.15,West,276,0.0,0.0,94,0.00,,,0.00,LWC V2.00 B2112,2013-01-06 14:18:00,
2013-01-06 09:23:00,41.6,39.7,30.15,West,276,0.0,0.0,93,0.00,,,0.00,LWC V2.00 B2112,2013-01-06 14:23:00,
2013-01-06 09:28:00,41.8,39.6,30.15,West,276,0.0,0.0,92,0.00,,,0.00,LWC V2.00 B2112,2013-01-06 14:28:00,
2013-01-06 09:33:00,41.9,39.7,30.15,West,276,0.0,0.0,92,0.00,,,0.00,LWC V2.00 B2112,2013-01-06 14:33:00,
2013-01-06 09:38:00,42.1,38.8,30.16,West,276,0.0,0.0,88,0.00,,,0.00,LWC V2.00 B2112,2013-01-06 14:38:00,
2013-01-06 09:43:00,42.2,38.0,30.16,West,276,0.0,0.0,85,0.00,,,0.00,LWC V2.00 B2112,2013-01-06 14:43:00,
2013-01-06 09:48:00,42.3,38.1,30.16,West,276,0.0,0.0,85,0.00,,,0.00,LWC V2.00 B2112,2013-01-06 14:48:00,
2013-01-06 09:53:00,42.6,38.4,30.16,West,276,0.0,0.0,85,0.00,,,0.00,LWC V2.00 B2112,2013-01-06 14:53:00,
2013-01-06 09:58:00,42.9,37.5,30.16,West,276,0.0,0.0,81,0.00,,,0.00,LWC V2.00 B2112,2013-01-06 14:58:00,
2013-01-06 10:03:00,43.2,37.5,30.16,West,276,0.0,0.0,80,0.00,,,0.00,LWC V2.00 B2112,2013-01-06 15:03:00,
2013-01-06 10:08:00,43.6,37.5,30.15,West,276,0.0,0.0,79,0.00,,,0.00,LWC V2.00 B2112,2013-01-06 15:08:00,
2013-01-06 10:13:00,44.1,37.0,30.15,West,276,0.0,1.0,76,0.00,,,0.00,LWC V2.00 B2112,2013-01-06 15:13:00,
2013-01-06 10:18:00,44.2,36.4,30.15,West,276,0.0,0.0,74,0.00,,,0.00,LWC V2.00 B2112,2013-01-06 15:18:00,
2013-01-06 10:23:00,44.5,36.7,30.15,West,276,0.0,1.0,74,0.00,,,0.00,LWC V2.00 B2112,2013-01-06 15:23:00,
2013-01-06 10:28:00,44.6,37.2,30.15,West,276,0.0,0.0,75,0.00,,,0.00,LWC V2.00 B2112,2013-01-06 15:28:00,
2013-01-06 10:33:00,44.6,37.5,30.15,West,276,0.0,0.0,76,0.00,,,0.00,LWC V2.00 B2112,2013-01-06 15:33:00,
2013-01-06 10:38:00,44.6,36.8,30.15,West,276,0.0,0.0,74,0.00,,,0.00,LWC V2.00 B2112,2013-01-06 15:38:00,
2013-01-06 10:43:00,44.6,37.5,30.15,West,276,0.0,0.0,76,0.00,,,0.00,LWC V2.00 B2112,2013-01-06 15:43:00,
2013-01-06 10:48:00,44.8,37.7,30.15,West,276,0.0,0.0,76,0.00,,,0.00,LWC V2.00 B2112,2013-01-06 15:48:00,
2013-01-06 10:53:00,44.9,37.8,30.15,West,276,0.0,0.0,76,0.00,,,0.00,LWC V2.00 B2112,2013-01-06 15:53:00,
2013-01-06 10:58:00,45.1,37.7,30.15,West,276,0.0,0.0,75,0.00,,,0.00,LWC V2.00 B2112,2013-01-06 15:58:00,
2013-01-06 11:03:00,45.2,37.4,30.15,West,276,0.0,0.0,74,0.00,,,0.00,LWC V2.00 B2112,2013-01-06 16:03:00,
2013-01-06 11:08:00,45.4,36.6,30.14,West,276,0.0,0.0,71,0.00,,,0.00,LWC V2.00 B2112,2013-01-06 16:08:00,
2013-01-06 11:13:00,45.5,37.0,30.14,West,276,0.0,0.0,72,0.00,,,0.00,LWC V2.00 B2112,2013-01-06 16:13:00,
2013-01-06 11:18:00,45.8,36.9,30.14,West,276,0.0,0.0,71,0.00,,,0.00,LWC V2.00 B2112,2013-01-06 16:18:00,
2013-01-06 11:23:00,46.0,36.4,30.13,West,276,0.0,0.0,69,0.00,,,0.00,LWC V2.00 B2112,2013-01-06 16:23:00,
2013-01-06 11:28:00,46.2,37.0,30.13,North,351,0.0,0.0,70,0.00,,,0.00,LWC V2.00 B2112,2013-01-06 16:28:00,
2013-01-06 11:33:00,46.2,35.9,30.13,North,351,0.0,0.0,67,0.00,,,0.00,LWC V2.00 B2112,2013-01-06 16:33:00,
2013-01-06 11:38:00,46.4,37.2,30.12,North,351,0.0,0.0,70,0.00,,,0.00,LWC V2.00 B2112,2013-01-06 16:38:00,
2013-01-06 11:43:00,46.4,37.9,30.12,North,351,0.0,0.0,72,0.00,,,0.00,LWC V2.00 B2112,2013-01-06 16:43:00,
2013-01-06 11:48:00,46.4,37.2,30.12,North,351,0.0,0.0,70,0.00,,,0.00,LWC V2.00 B2112,2013-01-06 16:48:00,
2013-01-06 11:53:00,46.4,36.8,30.11,North,351,0.0,0.0,69,0.00,,,0.00,LWC V2.00 B2112,2013-01-06 16:53:00,
2013-01-06 11:58:00,46.2,37.3,30.11,North,351,0.0,0.0,71,0.00,,,0.00,LWC V2.00 B2112,2013-01-06 16:58:00,
2013-01-06 12:03:00,46.2,37.0,30.11,North,355,0.0,0.0,70,0.00,,,0.00,LWC V2.00 B2112,2013-01-06 17:03:00,
2013-01-06 12:08:00,46.2,35.9,30.10,North,351,0.0,1.0,67,0.00,,,0.00,LWC V2.00 B2112,2013-01-06 17:08:00,
2013-01-06 12:13:00,46.1,36.1,30.10,North,351,0.0,0.0,68,0.00,,,0.00,LWC V2.00 B2112,2013-01-06 17:13:00,
2013-01-06 12:18:00,46.2,36.6,30.10,North,351,0.0,0.0,69,0.00,,,0.00,LWC V2.00 B2112,2013-01-06 17:18:00,
2013-01-06 12:23:00,46.2,35.9,30.09,North,351,0.0,1.0,67,0.00,,,0.00,LWC V2.00 B2112,2013-01-06 17:23:00,
2013-01-06 12:28:00,46.2,36.6,30.09,North,351,0.0,0.0,69,0.00,,,0.00,LWC V2.00 B2112,2013-01-06 17:28:00,
2013-01-06 12:33:00,46.2,35.9,30.09,North,351,0.0,0.0,67,0.00,,,0.00,LWC V2.00 B2112,2013-01-06 17:33:00,
2013-01-06 12:38:00,46.4,36.0,30.07,North,351,0.0,0.0,67,0.00,,,0.00,LWC V2.00 B2112,2013-01-06 17:38:00,
2013-01-06 12:43:00,46.4,36.0,30.07,North,351,0.0,0.0,67,0.00,,,0.00,LWC V2.00 B2112,2013-01-06 17:43:00,
2013-01-06 12:48:00,46.5,36.1,30.07,North,351,0.0,0.0,67,0.00,,,0.00,LWC V2.00 B2112,2013-01-06 17:48:00,
2013-01-06 12:53:00,46.5,35.4,30.07,North,355,0.0,0.0,65,0.00,,,0.00,LWC V2.00 B2112,2013-01-06 17:53:00,
2013-01-06 12:58:00,46.7,36.3,30.07,North,351,0.0,0.0,67,0.00,,,0.00,LWC V2.00 B2112,2013-01-06 17:58:00,
2013-01-06 13:03:00,46.8,36.4,30.07,North,355,0.0,0.0,67,0.00,,,0.00,LWC V2.00 B2112,2013-01-06 18:03:00,
2013-01-06 13:08:00,47.1,37.5,30.06,North,351,0.0,0.0,69,0.00,,,0.00,LWC V2.00 B2112,2013-01-06 18:08:00,
2013-01-06 13:13:00,47.3,36.1,30.06,North,351,0.0,0.0,65,0.00,,,0.00,LWC V2.00 B2112,2013-01-06 18:13:00,
2013-01-06 13:18:00,47.4,35.8,30.06,North,351,0.0,0.0,64,0.00,,,0.00,LWC V2.00 B2112,2013-01-06 18:18:00,
2013-01-06 13:23:00,47.4,35.8,30.05,North,351,0.0,0.0,64,0.00,,,0.00,LWC V2.00 B2112,2013-01-06 18:23:00,
2013-01-06 13:28:00,47.6,36.0,30.05,North,351,0.0,0.0,64,0.00,,,0.00,LWC V2.00 B2112,2013-01-06 18:28:00,
2013-01-06 13:33:00,47.9,36.3,30.05,North,351,0.0,0.0,64,0.00,,,0.00,LWC V2.00 B2112,2013-01-06 18:33:00,
2013-01-06 13:38:00,48.2,37.4,30.06,North,351,0.0,0.0,66,0.00,,,0.00,LWC V2.00 B2112,2013-01-06 18:38:00,
2013-01-06 13:43:00,48.5,36.9,30.06,North,351,0.0,1.0,64,0.00,,,0.00,LWC V2.00 B2112,2013-01-06 18:43:00,
2013-01-06 13:48:00,48.6,36.6,30.06,North,351,0.0,1.0,63,0.00,,,0.00,LWC V2.00 B2112,2013-01-06 18:48:00,
2013-01-06 13:53:00,48.9,37.3,30.04,North,351,0.0,0.0,64,0.00,,,0.00,LWC V2.00 B2112,2013-01-06 18:53:00,
2013-01-06 13:58:00,49.4,36.5,30.04,North,351,0.0,0.0,61,0.00,,,0.00,LWC V2.00 B2112,2013-01-06 18:58:00,
2013-01-06 14:03:00,49.5,36.6,30.04,NNW,344,0.0,1.0,61,0.00,,,0.00,LWC V2.00 B2112,2013-01-06 19:03:00,
2013-01-06 14:08:00,49.6,36.3,30.04,NNW,344,0.0,0.0,60,0.00,,,0.00,LWC V2.00 B2112,2013-01-06 19:08:00,
2013-01-06 14:13:00,49.9,37.4,30.04,NNW,344,0.0,0.0,62,0.00,,,0.00,LWC V2.00 B2112,2013-01-06 19:13:00,
2013-01-06 14:18:00,50.2,36.9,30.04,NNW,344,0.0,0.0,60,0.00,,,0.00,LWC V2.00 B2112,2013-01-06 19:18:00,
2013-01-06 14:23:00,50.1,35.9,30.04,NNW,344,0.0,0.0,58,0.00,,,0.00,LWC V2.00 B2112,2013-01-06 19:23:00,
2013-01-06 14:28:00,50.1,36.3,30.04,NNW,344,0.0,0.0,59,0.00,,,0.00,LWC V2.00 B2112,2013-01-06 19:28:00,
2013-01-06 14:33:00,50.2,35.1,30.04,NNW,340,0.0,1.0,56,0.00,,,0.00,LWC V2.00 B2112,2013-01-06 19:33:00,
2013-01-06 14:38:00,50.2,36.4,30.04,NNW,340,0.0,0.0,59,0.00,,,0.00,LWC V2.00 B2112,2013-01-06 19:38:00,
2013-01-06 14:48:00,50.5,35.8,30.04,NNW,340,0.0,0.0,57,0.00,,,0.00,LWC V2.00 B2112,2013-01-06 19:48:00,
2013-01-06 14:50:00,50.5,34.9,30.04,NNW,340,0.0,1.0,55,0.00,,,0.00,LWC V2.00 B2112,2013-01-06 19:50:00,
2013-01-06 14:55:00,50.4,35.3,30.03,NNW,340,0.0,0.0,56,0.00,,,0.00,LWC V2.00 B2112,2013-01-06 19:55:00,
2013-01-06 15:00:00,50.5,35.4,30.03,NNW,340,0.0,0.0,56,0.00,,,0.00,LWC V2.00 B2112,2013-01-06 20:00:00,
2013-01-06 15:05:00,50.4,36.2,30.03,NW,306,0.0,1.0,58,0.00,,,0.00,LWC V2.00 B2112,2013-01-06 20:05:00,
2013-01-06 15:10:00,50.2,35.6,30.03,NW,306,0.0,0.0,57,0.00,,,0.00,LWC V2.00 B2112,2013-01-06 20:10:00,
2013-01-06 15:15:00,50.1,35.9,30.03,NW,306,0.0,1.0,58,0.00,,,0.00,LWC V2.00 B2112,2013-01-06 20:15:00,
2013-01-06 15:20:00,49.9,36.1,30.03,NW,306,0.0,0.0,59,0.00,,,0.00,LWC V2.00 B2112,2013-01-06 20:20:00,
2013-01-06 15:25:00,49.9,36.1,30.02,NW,306,0.0,1.0,59,0.00,,,0.00,LWC V2.00 B2112,2013-01-06 20:25:00,
2013-01-06 15:30:00,49.8,36.1,30.02,NW,306,0.0,0.0,59,0.00,,,0.00,LWC V2.00 B2112,2013-01-06 20:30:00,
2013-01-06 15:35:00,49.8,36.5,30.02,NW,306,0.0,0.0,60,0.00,,,0.00,LWC V2.00 B2112,2013-01-06 20:35:00,
2013-01-06 15:40:00,49.8,36.5,30.02,NW,306,0.0,0.0,60,0.00,,,0.00,LWC V2.00 B2112,2013-01-06 20:40:00,
2013-01-06 15:45:00,49.8,36.5,30.02,NW,306,0.0,0.0,60,0.00,,,0.00,LWC V2.00 B2112,2013-01-06 20:45:00,
2013-01-06 15:50:00,49.8,37.3,30.02,NW,306,0.0,0.0,62,0.00,,,0.00,LWC V2.00 B2112,2013-01-06 20:50:00,
2013-01-06 15:55:00,49.6,36.3,30.02,NW,306,0.0,0.0,60,0.00,,,0.00,LWC V2.00 B2112,2013-01-06 20:55:00,
2013-01-06 16:00:00,49.5,36.6,30.02,NW,306,0.0,0.0,61,0.00,,,0.00,LWC V2.00 B2112,2013-01-06 21:00:00,
2013-01-06 16:05:00,49.4,36.9,30.02,NW,306,0.0,0.0,62,0.00,,,0.00,LWC V2.00 B2112,2013-01-06 21:05:00,
2013-01-06 16:10:00,49.4,37.3,30.02,NW,306,0.0,0.0,63,0.00,,,0.00,LWC V2.00 B2112,2013-01-06 21:10:00,
2013-01-06 16:15:00,49.4,37.7,30.02,NW,306,0.0,0.0,64,0.00,,,0.00,LWC V2.00 B2112,2013-01-06 21:15:00,
2013-01-06 16:20:00,49.4,36.5,30.02,NW,306,0.0,0.0,61,0.00,,,0.00,LWC V2.00 B2112,2013-01-06 21:20:00,
2013-01-06 16:25:00,49.2,35.9,30.02,NW,306,0.0,0.0,60,0.00,,,0.00,LWC V2.00 B2112,2013-01-06 21:25:00,
2013-01-06 16:30:00,49.1,36.2,30.02,NW,306,0.0,0.0,61,0.00,,,0.00,LWC V2.00 B2112,2013-01-06 21:30:00,
2013-01-06 16:35:00,49.1,36.2,30.02,NW,306,0.0,0.0,61,0.00,,,0.00,LWC V2.00 B2112,2013-01-06 21:35:00,
2013-01-06 16:40:00,49.1,37.1,30.02,NW,306,0.0,0.0,63,0.00,,,0.00,LWC V2.00 B2112,2013-01-06 21:40:00,
2013-01-06 16:45:00,49.1,37.1,30.02,NW,306,0.0,0.0,63,0.00,,,0.00,LWC V2.00 B2112,2013-01-06 21:45:00,
2013-01-06 16:50:00,48.9,38.0,30.02,NW,306,0.0,0.0,66,0.00,,,0.00,LWC V2.00 B2112,2013-01-06 21:50:00,
2013-01-06 16:55:00,48.8,37.6,30.02,NW,306,0.0,0.0,65,0.00,,,0.00,LWC V2.00 B2112,2013-01-06 21:55:00,
2013-01-06 17:00:00,48.6,37.4,30.02,NW,306,0.0,0.0,65,0.00,,,0.00,LWC V2.00 B2112,2013-01-06 22:00:00,
2013-01-06 17:05:00,48.5,38.0,30.02,NW,306,0.0,0.0,67,0.00,,,0.00,LWC V2.00 B2112,2013-01-06 22:05:00,
2013-01-06 17:10:00,48.2,38.1,30.02,NW,306,0.0,0.0,68,0.00,,,0.00,LWC V2.00 B2112,2013-01-06 22:10:00,
2013-01-06 17:15:00,48.0,38.0,30.02,NW,306,0.0,0.0,68,0.00,,,0.00,LWC V2.00 B2112,2013-01-06 22:15:00,
2013-01-06 17:20:00,47.7,37.7,30.02,NW,306,0.0,0.0,68,0.00,,,0.00,LWC V2.00 B2112,2013-01-06 22:20:00,
2013-01-06 17:25:00,47.6,37.9,30.02,NW,306,0.0,0.0,69,0.00,,,0.00,LWC V2.00 B2112,2013-01-06 22:25:00,
2013-01-06 17:30:00,47.4,38.1,30.02,NW,306,0.0,0.0,70,0.00,,,0.00,LWC V2.00 B2112,2013-01-06 22:30:00,
2013-01-06 17:35:00,47.1,37.8,30.02,NW,306,0.0,0.0,70,0.00,,,0.00,LWC V2.00 B2112,2013-01-06 22:35:00,
2013-01-06 17:40:00,47.0,38.1,30.03,NW,306,0.0,0.0,71,0.00,,,0.00,LWC V2.00 B2112,2013-01-06 22:40:00,
2013-01-06 17:45:00,46.8,38.3,30.03,NW,306,0.0,0.0,72,0.00,,,0.00,LWC V2.00 B2112,2013-01-06 22:45:00,
2013-01-06 17:50:00,46.5,38.0,30.03,NW,306,0.0,0.0,72,0.00,,,0.00,LWC V2.00 B2112,2013-01-06 22:50:00,
2013-01-06 17:55:00,46.4,37.9,30.03,NW,306,0.0,0.0,72,0.00,,,0.00,LWC V2.00 B2112,2013-01-06 22:55:00,
2013-01-06 18:00:00,46.1,37.6,30.03,NW,306,0.0,0.0,72,0.00,,,0.00,LWC V2.00 B2112,2013-01-06 23:00:00,
2013-01-06 18:05:00,46.0,37.8,30.03,NW,306,0.0,0.0,73,0.00,,,0.00,LWC V2.00 B2112,2013-01-06 23:05:00,
2013-01-06 18:10:00,45.7,37.9,30.04,NW,306,0.0,0.0,74,0.00,,,0.00,LWC V2.00 B2112,2013-01-06 23:10:00,
2013-01-06 18:15:00,45.5,37.7,30.04,NW,306,0.0,0.0,74,0.00,,,0.00,LWC V2.00 B2112,2013-01-06 23:15:00,
2013-01-06 18:20:00,45.2,37.4,30.04,NW,306,0.0,0.0,74,0.00,,,0.00,LWC V2.00 B2112,2013-01-06 23:20:00,
2013-01-06 18:25:00,44.8,37.0,30.04,NW,306,0.0,0.0,74,0.00,,,0.00,LWC V2.00 B2112,2013-01-06 23:25:00,
2013-01-06 18:30:00,44.6,37.2,30.04,NW,306,0.0,0.0,75,0.00,,,0.00,LWC V2.00 B2112,2013-01-06 23:30:00,
2013-01-06 18:35:00,44.3,37.2,30.04,NW,306,0.0,0.0,76,0.00,,,0.00,LWC V2.00 B2112,2013-01-06 23:35:00,
2013-01-06 18:40:00,44.1,37.0,30.04,NW,306,0.0,0.0,76,0.00,,,0.00,LWC V2.00 B2112,2013-01-06 23:40:00,
2013-01-06 18:45:00,43.8,36.7,30.04,NW,306,0.0,0.0,76,0.00,,,0.00,LWC V2.00 B2112,2013-01-06 23:45:00,
2013-01-06 18:50:00,43.5,36.8,30.04,NW,306,0.0,0.0,77,0.00,,,0.00,LWC V2.00 B2112,2013-01-06 23:50:00,
2013-01-06 18:55:00,43.2,36.5,30.05,NW,306,0.0,0.0,77,0.00,,,0.00,LWC V2.00 B2112,2013-01-06 23:55:00,
2013-01-06 19:00:00,42.9,36.5,30.05,NW,306,0.0,0.0,78,0.00,,,0.00,LWC V2.00 B2112,2013-01-07 00:00:00,
2013-01-06 19:06:00,42.6,36.2,30.05,NW,306,0.0,0.0,78,0.00,,,0.00,LWC V2.00 B2112,2013-01-07 00:06:00,
2013-01-06 19:11:00,42.3,36.3,30.06,NW,306,0.0,0.0,79,0.00,,,0.00,LWC V2.00 B2112,2013-01-07 00:11:00,
2013-01-06 19:16:00,41.9,35.9,30.06,NW,306,0.0,0.0,79,0.00,,,0.00,LWC V2.00 B2112,2013-01-07 00:16:00,
2013-01-06 19:21:00,41.6,35.9,30.06,NW,306,0.0,0.0,80,0.00,,,0.00,LWC V2.00 B2112,2013-01-07 00:21:00,
2013-01-06 19:26:00,41.3,35.9,30.06,NW,306,0.0,0.0,81,0.00,,,0.00,LWC V2.00 B2112,2013-01-07 00:26:00,
2013-01-06 19:31:00,41.1,35.7,30.06,NW,306,0.0,0.0,81,0.00,,,0.00,LWC V2.00 B2112,2013-01-07 00:31:00,
2013-01-06 19:36:00,40.8,35.7,30.06,NW,306,0.0,0.0,82,0.00,,,0.00,LWC V2.00 B2112,2013-01-07 00:36:00,
2013-01-06 19:41:00,40.3,35.2,30.06,NW,306,0.0,0.0,82,0.00,,,0.00,LWC V2.00 B2112,2013-01-07 00:41:00,
2013-01-06 19:46:00,40.2,35.5,30.06,NW,306,0.0,0.0,83,0.00,,,0.00,LWC V2.00 B2112,2013-01-07 00:46:00,
2013-01-06 19:50:00,39.9,35.2,30.06,NW,306,0.0,0.0,83,0.00,,,0.00,LWC V2.00 B2112,2013-01-07 00:50:00,
2013-01-06 19:55:00,39.8,35.4,30.07,NW,306,0.0,0.0,84,0.00,,,0.00,LWC V2.00 B2112,2013-01-07 00:55:00,
2013-01-06 20:00:00,39.6,35.2,30.07,NW,306,0.0,0.0,84,0.00,,,0.00,LWC V2.00 B2112,2013-01-07 01:00:00,
2013-01-06 20:05:00,39.3,34.9,30.07,NW,306,0.0,0.0,84,0.00,,,0.00,LWC V2.00 B2112,2013-01-07 01:05:00,
2013-01-06 20:10:00,39.1,34.7,30.07,NW,306,0.0,0.0,84,0.00,,,0.00,LWC V2.00 B2112,2013-01-07 01:10:00,
2013-01-06 20:15:00,38.8,34.4,30.07,NW,306,0.0,0.0,84,0.00,,,0.00,LWC V2.00 B2112,2013-01-07 01:15:00,
2013-01-06 20:20:00,38.5,34.1,30.07,NW,306,0.0,0.0,84,0.00,,,0.00,LWC V2.00 B2112,2013-01-07 01:20:00,
2013-01-06 20:25:00,38.3,33.9,30.08,NW,306,0.0,0.0,84,0.00,,,0.00,LWC V2.00 B2112,2013-01-07 01:25:00,
2013-01-06 20:30:00,38.0,33.9,30.08,NW,306,0.0,0.0,85,0.00,,,0.00,LWC V2.00 B2112,2013-01-07 01:30:00,
2013-01-06 20:35:00,37.8,34.0,30.08,NW,306,0.0,0.0,86,0.00,,,0.00,LWC V2.00 B2112,2013-01-07 01:35:00,
2013-01-06 20:40:00,37.6,33.8,30.08,NW,306,0.0,0.0,86,0.00,,,0.00,LWC V2.00 B2112,2013-01-07 01:40:00,
2013-01-06 20:45:00,37.5,33.7,30.08,NW,306,0.0,0.0,86,0.00,,,0.00,LWC V2.00 B2112,2013-01-07 01:45:00,
2013-01-06 20:50:00,37.3,33.5,30.08,NW,306,0.0,0.0,86,0.00,,,0.00,LWC V2.00 B2112,2013-01-07 01:50:00,
2013-01-06 20:55:00,37.0,33.5,30.08,NW,306,0.0,0.0,87,0.00,,,0.00,LWC V2.00 B2112,2013-01-07 01:55:00,
2013-01-06 21:00:00,36.9,33.4,30.08,NW,306,0.0,0.0,87,0.00,,,0.00,LWC V2.00 B2112,2013-01-07 02:00:00,
2013-01-06 21:05:00,36.6,33.1,30.08,NW,306,0.0,0.0,87,0.00,,,0.00,LWC V2.00 B2112,2013-01-07 02:05:00,
2013-01-06 21:10:00,36.3,33.1,30.09,NW,306,0.0,0.0,88,0.00,,,0.00,LWC V2.00 B2112,2013-01-07 02:10:00,
2013-01-06 21:15:00,36.0,32.8,30.09,NW,306,0.0,0.0,88,0.00,,,0.00,LWC V2.00 B2112,2013-01-07 02:15:00,
2013-01-06 21:20:00,35.8,32.6,30.09,NW,306,0.0,0.0,88,0.00,,,0.00,LWC V2.00 B2112,2013-01-07 02:20:00,
2013-01-06 21:25:00,35.6,32.7,30.09,NW,306,0.0,0.0,89,0.00,,,0.00,LWC V2.00 B2112,2013-01-07 02:25:00,
2013-01-06 21:30:00,35.3,32.4,30.09,NW,306,0.0,0.0,89,0.00,,,0.00,LWC V2.00 B2112,2013-01-07 02:30:00,
2013-01-06 21:35:00,35.2,32.6,30.09,NW,306,0.0,0.0,90,0.00,,,0.00,LWC V2.00 B2112,2013-01-07 02:35:00,
2013-01-06 21:40:00,35.0,32.4,30.10,NW,306,0.0,0.0,90,0.00,,,0.00,LWC V2.00 B2112,2013-01-07 02:40:00,
2013-01-06 21:45:00,34.9,32.5,30.10,NW,306,0.0,0.0,91,0.00,,,0.00,LWC V2.00 B2112,2013-01-07 02:45:00,
2013-01-06 21:50:00,34.7,32.3,30.10,NW,306,0.0,0.0,91,0.00,,,0.00,LWC V2.00 B2112,2013-01-07 02:50:00,
2013-01-06 21:55:00,34.6,32.2,30.10,NW,306,0.0,0.0,91,0.00,,,0.00,LWC V2.00 B2112,2013-01-07 02:55:00,
2013-01-06 22:00:00,34.6,32.5,30.10,NW,306,0.0,0.0,92,0.00,,,0.00,LWC V2.00 B2112,2013-01-07 03:00:00,
2013-01-06 22:05:00,34.4,32.3,30.10,NW,306,0.0,0.0,92,0.00,,,0.00,LWC V2.00 B2112,2013-01-07 03:05:00,
2013-01-06 22:10:00,34.3,32.2,30.10,NW,306,0.0,0.0,92,0.00,,,0.00,LWC V2.00 B2112,2013-01-07 03:10:00,
2013-01-06 22:15:00,34.1,32.0,30.10,NW,306,0.0,0.0,92,0.00,,,0.00,LWC V2.00 B2112,2013-01-07 03:15:00,
2013-01-06 22:20:00,34.1,32.0,30.10,NW,306,0.0,0.0,92,0.00,,,0.00,LWC V2.00 B2112,2013-01-07 03:20:00,
2013-01-06 22:25:00,33.8,31.7,30.10,NW,306,0.0,0.0,92,0.00,,,0.00,LWC V2.00 B2112,2013-01-07 03:25:00,
2013-01-06 22:30:00,33.8,31.7,30.10,NW,306,0.0,0.0,92,0.00,,,0.00,LWC V2.00 B2112,2013-01-07 03:30:00,
2013-01-06 22:35:00,33.7,31.6,30.10,NW,306,0.0,0.0,92,0.00,,,0.00,LWC V2.00 B2112,2013-01-07 03:35:00,
2013-01-06 22:40:00,33.7,31.9,30.11,NW,306,0.0,0.0,93,0.00,,,0.00,LWC V2.00 B2112,2013-01-07 03:40:00,
2013-01-06 22:45:00,33.7,31.9,30.11,NW,306,0.0,0.0,93,0.00,,,0.00,LWC V2.00 B2112,2013-01-07 03:45:00,
2013-01-06 22:50:00,33.7,31.9,30.11,NW,306,0.0,0.0,93,0.00,,,0.00,LWC V2.00 B2112,2013-01-07 03:50:00,
2013-01-06 22:55:00,33.7,31.9,30.12,NW,306,0.0,0.0,93,0.00,,,0.00,LWC V2.00 B2112,2013-01-07 03:55:00,
2013-01-06 23:00:00,33.7,31.9,30.12,NW,306,0.0,0.0,93,0.00,,,0.00,LWC V2.00 B2112,2013-01-07 04:00:00,
2013-01-06 23:05:00,33.7,32.2,30.12,NW,306,0.0,0.0,94,0.00,,,0.00,LWC V2.00 B2112,2013-01-07 04:05:00,
2013-01-06 23:10:00,33.8,32.3,30.12,NW,306,0.0,0.0,94,0.00,,,0.00,LWC V2.00 B2112,2013-01-07 04:10:00,
2013-01-06 23:15:00,34.0,32.5,30.12,NW,306,0.0,0.0,94,0.00,,,0.00,LWC V2.00 B2112,2013-01-07 04:15:00,
2013-01-06 23:20:00,34.0,32.5,30.12,NW,306,0.0,0.0,94,0.00,,,0.00,LWC V2.00 B2112,2013-01-07 04:20:00,
2013-01-06 23:25:00,34.1,32.6,30.13,NW,306,0.0,0.0,94,0.00,,,0.00,LWC V2.00 B2112,2013-01-07 04:25:00,
2013-01-06 23:30:00,34.1,32.6,30.13,NW,306,0.0,0.0,94,0.00,,,0.00,LWC V2.00 B2112,2013-01-07 04:30:00,
2013-01-06 23:35:00,34.1,32.6,30.13,NW,306,0.0,0.0,94,0.00,,,0.00,LWC V2.00 B2112,2013-01-07 04:35:00,
2013-01-06 23:40:00,34.1,32.6,30.13,NW,306,0.0,0.0,94,0.00,,,0.00,LWC V2.00 B2112,2013-01-07 04:40:00,
2013-01-06 23:45:00,34.0,32.5,30.13,NW,306,0.0,0.0,94,0.00,,,0.00,LWC V2.00 B2112,2013-01-07 04:45:00,
2013-01-06 23:50:00,34.0,32.5,30.13,NW,306,0.0,0.0,94,0.00,,,0.00,LWC V2.00 B2112,2013-01-07 04:50:00,
2013-01-06 23:55:00,33.8,32.3,30.13,NW,306,0.0,0.0,94,0.00,,,0.00,LWC V2.00 B2112,2013-01-07 04:55:00,